TimeCST,TemperatureF,Dew PointF,Humidity,Sea Level PressureIn,VisibilityMPH,Wind Direction,Wind SpeedMPH,Gust SpeedMPH,PrecipitationIn,Events,Conditions,WindDirDegrees,DateUTC
12:53 AM,39.0,36.0,89,30.00,5.0,South,6.9,-,N/A,,Clear,190,2011-11-24 06:53:00
1:53 AM,37.9,35.1,89,30.00,4.0,SSW,6.9,-,N/A,,Mostly Cloudy,200,2011-11-24 07:53:00
2:53 AM,37.9,35.1,89,29.99,4.0,SSW,6.9,-,N/A,,Mostly Cloudy,200,2011-11-24 08:53:00
3:53 AM,37.9,35.1,89,29.98,4.0,South,8.1,-,N/A,,Overcast,190,2011-11-24 09:53:00
4:43 AM,37.4,35.6,93,29.93,4.0,South,8.1,-,N/A,,Scattered Clouds,190,2011-11-24 10:43:00
5:53 AM,37.9,35.1,89,29.96,5.0,South,8.1,-,N/A,,Overcast,180,2011-11-24 11:53:00
6:53 AM,37.0,35.1,93,29.94,4.0,South,6.9,-,N/A,,Scattered Clouds,170,2011-11-24 12:53:00
7:53 AM,37.9,35.1,89,29.93,3.0,South,3.5,-,N/A,,Clear,190,2011-11-24 13:53:00
8:53 AM,41.0,37.0,86,29.91,4.0,South,5.8,-,N/A,,Clear,190,2011-11-24 14:53:00
9:53 AM,45.0,37.0,74,29.88,6.0,South,10.4,17.3,N/A,,Haze,190,2011-11-24 15:53:00
10:53 AM,50.0,37.9,63,29.86,9.0,SSW,9.2,17.3,N/A,,Clear,200,2011-11-24 16:53:00
11:53 AM,50.0,37.9,63,29.83,9.0,South,9.2,-,N/A,,Clear,190,2011-11-24 17:53:00
12:53 PM,53.1,39.0,59,29.80,9.0,SSW,12.7,18.4,N/A,,Clear,200,2011-11-24 18:53:00
1:53 PM,53.1,39.0,59,29.79,9.0,Variable,6.9,19.6,N/A,,Clear,0,2011-11-24 19:53:00
2:53 PM,52.0,39.9,63,29.78,9.0,SSW,6.9,-,N/A,,Clear,200,2011-11-24 20:53:00
3:53 PM,53.1,39.9,61,29.77,10.0,SSW,9.2,-,N/A,,Clear,210,2011-11-24 21:53:00
4:53 PM,50.0,39.0,66,29.78,10.0,SSW,4.6,-,N/A,,Clear,200,2011-11-24 22:53:00
5:53 PM,48.0,39.0,71,29.78,10.0,South,3.5,-,N/A,,Clear,190,2011-11-24 23:53:00
6:53 PM,46.9,39.9,77,29.77,9.0,SSW,4.6,-,N/A,,Clear,200,2011-11-25 00:53:00
7:53 PM,48.9,41.0,74,29.76,9.0,Variable,6.9,-,N/A,,Clear,0,2011-11-25 01:53:00
9:53 PM,50.0,41.0,71,29.73,10.0,SSW,5.8,-,N/A,,Clear,200,2011-11-25 03:53:00
11:53 PM,51.1,42.1,71,29.71,10.0,Variable,4.6,-,N/A,,Clear,0,2011-11-25 05:53:00